EST,Max TemperatureF,Mean TemperatureF,Min TemperatureF,Max Dew PointF,MeanDew PointF,Min DewpointF,Max Humidity, Mean Humidity, Min Humidity, Max Sea Level PressureIn, Mean Sea Level PressureIn, Min Sea Level PressureIn, Max VisibilityMiles, Mean VisibilityMiles, Min VisibilityMiles, Max Wind SpeedMPH, Mean Wind SpeedMPH, Max Gust SpeedMPH,PrecipitationIn, CloudCover, Events, WindDirDegrees
2013-12-1,53,42,32,36,32,30,100,65,41,30.38,30.21,30.05,10,8,1,7,1,,0.00,0,,198
2013-12-2,57,45,33,37,34,30,100,63,36,30.05,29.93,29.86,10,9,2,7,1,,0.00,2,,73
2013-12-3,59,49,39,45,40,36,93,63,45,30.04,29.97,29.89,10,9,5,8,1,,0.00,3,,152
2013-12-4,59,54,50,59,47,43,100,84,76,30.11,30.07,30.03,10,7,0,6,1,,0.06,8,Fog-Rain,78
2013-12-5,64,64,64,64,64,63,100,98,94,30.16,30.10,30.05,10,6,0,7,2,,0.00,8,Fog-Rain,149
2013-12-6,77,65,53,64,61,52,100,72,57,30.08,30.02,29.97,10,10,10,15,7,24,0.00,2,,170
2013-12-7,44,40,37,41,34,28,100,75,65,30.52,30.33,30.09,10,9,2,21,10,25,0.43,8,Rain-Thunderstorm,343
2013-12-8,37,34,32,32,28,27,100,78,70,30.53,30.44,30.30,10,6,2,13,8,17,0.13,8,Rain-Snow,339
2013-12-9,,,,,,,,,,30.31,30.17,30.09,10,5,1,6,3,,0.38,8,Rain,206
2013-12-10,33,32,32,34,29,27,100,87,80,30.33,30.10,29.97,10,6,0,9,3,,0.37,6,Fog-Rain,308
2013-12-11,44,35,26,32,26,23,100,73,43,30.47,30.36,30.29,10,10,10,9,2,,0.00,0,,213
2013-12-12,39,30,21,30,23,14,100,74,45,30.44,30.36,30.28,10,10,10,9,2,,0.00,0,,317
2013-12-13,46,34,21,30,23,18,100,74,34,30.40,30.34,30.28,10,10,10,12,1,18,0.00,0,,210
2013-12-14,44,38,32,41,31,28,100,81,57,30.34,30.12,29.77,10,7,1,10,3,16,0.63,7,Rain,46
2013-12-15,51,42,33,43,34,28,93,68,54,30.06,29.85,29.71,10,9,1,14,6,18,0.03,4,Rain,241
2013-12-16,50,39,28,34,31,28,100,78,50,30.19,30.14,30.05,10,10,10,10,2,16,0.00,0,,250
2013-12-17,59,48,37,43,36,34,100,64,39,30.15,30.04,29.87,10,9,4,17,2,31,0.07,1,Rain,178
2013-12-18,44,35,26,32,27,23,100,74,43,30.29,30.21,30.01,10,10,10,12,4,17,0.00,0,,250
2013-12-19,59,42,26,30,26,23,93,57,29,30.32,30.27,30.22,10,10,10,14,3,21,0.00,0,,159
2013-12-20,64,50,35,52,44,30,94,76,61,30.26,30.20,30.12,10,10,10,13,3,20,0.00,1,,155
2013-12-21,71,60,48,64,55,46,100,80,57,30.17,30.11,30.06,10,10,10,16,4,20,0.00,1,,148
2013-12-22,77,68,60,70,64,57,100,86,57,30.13,30.07,30.04,10,10,7,15,9,23,0.03,6,Rain,163
2013-12-23,,,,,,,,,,30.18,30.07,30.00,10,8,2,15,7,22,1.07,8,Rain,195
2013-12-24,42,36,28,41,27,12,93,66,44,30.48,30.28,30.17,10,10,10,15,8,24,0.00,4,,308
2013-12-25,35,29,23,23,16,10,100,63,41,30.59,30.51,30.43,10,10,10,8,3,,0.00,0,,350
2013-12-26,50,38,24,32,27,25,100,73,37,30.43,30.34,30.25,10,10,7,6,1,,0.00,3,,231
2013-12-27,50,36,23,32,26,21,100,69,32,30.48,30.42,30.38,10,10,10,5,1,,0.00,0,,308
2013-12-28,57,44,32,41,31,25,100,59,29,30.42,30.33,30.20,10,10,10,8,1,,0.01,1,Rain,173
2013-12-29,53,48,42,54,48,43,100,100,100,30.20,29.88,29.61,10,8,1,23,4,31,1.51,5,Rain,201
2013-12-30,51,46,41,46,40,36,100,78,62,30.17,30.05,29.92,10,10,10,7,2,,0.00,1,,276
2013-12-31,48,38,28,39,31,23,100,75,37,30.37,30.24,30.15,10,10,10,13,3,20,0.00,3,Rain,236